When you browse on this site, cookies collect data to enhance your experience and personalize the content and advertising you see.
Visit our Privacy Policy to learn more. By continuing to use the site, you agree to this use of cookies and data.
  • Em Portugal
  • Lista de países
  • Para 7 dias
  • Temperatura da água
  • Mapas de satélite
  • Mapa do tempo
  • Widgets de tempo
  • user-avatar
    Iniciar Sessão

    Previsão horária em Michalkowa

    Hoje, 19 Dezembro, Quarta-feira

    Tempo Temperatura Precipitação Vento Pressão Humidade
    00:00 -3°C° 0 mm 2 m/s 728 mmHg 91%
    01:00 -4°C° 0 mm 3 m/s 727 mmHg 91%
    02:00 -4°C° 0 mm 3 m/s 727 mmHg 91%
    03:00 -4°C° 0 mm 3 m/s 727 mmHg 91%
    04:00 -4°C° 0 mm 3 m/s 726 mmHg 91%
    05:00 -4°C° 0 mm 3 m/s 726 mmHg 90%
    06:00 -4°C° 0 mm 3 m/s 726 mmHg 89%
    07:00 -4°C° 0 mm 3 m/s 726 mmHg 89%
    08:00 -4°C° 0 mm 4 m/s 726 mmHg 86%
    09:00 -3°C° 0 mm 4 m/s 725 mmHg 83%
    10:00 -3°C° 0 mm 4 m/s 725 mmHg 80%
    11:00 -2°C° 0 mm 5 m/s 725 mmHg 79%
    12:00 -2°C° 0 mm 5 m/s 725 mmHg 77%
    13:00 -2°C° 0 mm 5 m/s 725 mmHg 76%
    14:00 -2°C° 0 mm 5 m/s 724 mmHg 77%
    15:00 -3°C° 0 mm 4 m/s 724 mmHg 79%
    16:00 -3°C° 0 mm 4 m/s 724 mmHg 80%
    17:00 -3°C° 0 mm 4 m/s 724 mmHg 80%
    18:00 -4°C° 0 mm 4 m/s 724 mmHg 80%
    19:00 -4°C° 0 mm 4 m/s 723 mmHg 80%
    20:00 -4°C° 0 mm 4 m/s 723 mmHg 80%
    21:00 -4°C° 0 mm 4 m/s 723 mmHg 79%
    22:00 -4°C° 0 mm 4 m/s 723 mmHg 79%
    23:00 -4°C° 0 mm 4 m/s 723 mmHg 79%

    Amanhã, 20 Dezembro, Quinta-feira

    Tempo Temperatura Precipitação Vento Pressão Humidade
    00:00 -4°C° 0 mm 4 m/s 723 mmHg 78%
    01:00 -4°C° 0 mm 4 m/s 723 mmHg 78%
    02:00 -4°C° 0 mm 4 m/s 723 mmHg 79%
    03:00 -5°C° 0 mm 3 m/s 723 mmHg 80%
    04:00 -5°C° 0 mm 3 m/s 722 mmHg 80%
    05:00 -5°C° 0 mm 3 m/s 722 mmHg 81%
    06:00 -5°C° 0 mm 3 m/s 722 mmHg 81%
    07:00 -6°C° 0 mm 3 m/s 722 mmHg 82%
    08:00 -5°C° 0 mm 3 m/s 723 mmHg 81%
    09:00 -5°C° 0 mm 3 m/s 723 mmHg 80%
    10:00 -4°C° 0 mm 4 m/s 723 mmHg 79%
    11:00 -4°C° 0.2 mm 3 m/s 723 mmHg 80%
    12:00 -2°C° 0.2 mm 3 m/s 723 mmHg 81%
    13:00 -2°C° 0.2 mm 3 m/s 723 mmHg 83%
    14:00 -2°C° 0.2 mm 3 m/s 723 mmHg 84%
    15:00 -2°C° 0.2 mm 3 m/s 723 mmHg 86%
    16:00 -2°C° 0.2 mm 3 m/s 723 mmHg 88%
    17:00 -2°C° 0 mm 3 m/s 723 mmHg 88%
    18:00 -1°C° 0 mm 3 m/s 723 mmHg 88%
    19:00 -1°C° 0 mm 3 m/s 723 mmHg 89%
    20:00 -1°C° 0 mm 3 m/s 723 mmHg 89%
    21:00 -1°C° 0 mm 3 m/s 723 mmHg 89%
    22:00 -2°C° 0 mm 4 m/s 723 mmHg 90%
    23:00 -2°C° 0 mm 4 m/s 723 mmHg 90%

    Depois de amanhã, 21 Dezembro, Sexta-feira

    Tempo Temperatura Precipitação Vento Pressão Humidade
    00:00 -2°C° 0 mm 4 m/s 723 mmHg 90%
    01:00 -1°C° 0 mm 4 m/s 723 mmHg 90%
    02:00 -1°C° 0 mm 4 m/s 723 mmHg 90%
    03:00 -1°C° 0 mm 4 m/s 723 mmHg 90%
    04:00 -2°C° 0 mm 4 m/s 723 mmHg 90%
    05:00 -1°C° 0 mm 4 m/s 723 mmHg 89%
    06:00 -1°C° 0 mm 4 m/s 722 mmHg 89%
    07:00 -1°C° 0 mm 4 m/s 722 mmHg 88%
    08:00 -1°C° 0 mm 4 m/s 722 mmHg 88%
    09:00 -1°C° 0 mm 4 m/s 722 mmHg 87%
    10:00 0°C° 0 mm 5 m/s 722 mmHg 87%
    11:00 0°C° 0.1 mm 5 m/s 721 mmHg 87%
    12:00 0°C° 0.1 mm 5 m/s 720 mmHg 86%
    13:00 +1°C° 0.1 mm 5 m/s 720 mmHg 86%
    14:00 0°C° 0.4 mm 5 m/s 719 mmHg 86%
    15:00 0°C° 0.4 mm 5 m/s 718 mmHg 85%
    16:00 -1°C° 0.4 mm 6 m/s 718 mmHg 85%
    17:00 -1°C° 0.9 mm 6 m/s 717 mmHg 85%
    18:00 -1°C° 0.9 mm 7 m/s 716 mmHg 85%
    19:00 0°C° 0.9 mm 8 m/s 716 mmHg 85%
    20:00 0°C° 0.3 mm 7 m/s 716 mmHg 86%
    21:00 +2°C° 0.3 mm 7 m/s 716 mmHg 87%
    22:00 +3°C° 0.3 mm 7 m/s 716 mmHg 87%
    23:00 +3°C° 0.1 mm 7 m/s 716 mmHg 88%

    22 Dezembro, Sábado

    Tempo Temperatura Precipitação Vento Pressão Humidade
    00:00 +3°C° 0.1 mm 6 m/s 716 mmHg 88%
    01:00 +3°C° 0.1 mm 6 m/s 716 mmHg 88%
    02:00 +3°C° 0 mm 6 m/s 716 mmHg 86%
    03:00 +2°C° 0 mm 6 m/s 717 mmHg 85%
    04:00 +1°C° 0 mm 6 m/s 717 mmHg 83%
    05:00 +1°C° 0 mm 5 m/s 717 mmHg 83%
    06:00 +1°C° 0 mm 5 m/s 717 mmHg 83%
    07:00 +1°C° 0 mm 5 m/s 717 mmHg 83%
    08:00 +1°C° 0 mm 5 m/s 717 mmHg 84%
    09:00 +2°C° 0 mm 5 m/s 717 mmHg 84%
    10:00 +3°C° 0 mm 4 m/s 717 mmHg 84%
    11:00 +3°C° 0.1 mm 5 m/s 716 mmHg 85%
    12:00 +5°C° 0.1 mm 5 m/s 716 mmHg 85%
    13:00 +5°C° 0.1 mm 5 m/s 715 mmHg 86%
    14:00 +4°C° 0.4 mm 6 m/s 715 mmHg 85%
    15:00 +4°C° 0.4 mm 7 m/s 715 mmHg 85%
    16:00 +5°C° 0.4 mm 7 m/s 715 mmHg 84%
    17:00 +4°C° 0 mm 7 m/s 715 mmHg 82%
    18:00 +3°C° 0 mm 7 m/s 715 mmHg 81%
    19:00 +3°C° 0 mm 7 m/s 716 mmHg 79%
    20:00 +3°C° 0.1 mm 7 m/s 716 mmHg 80%
    21:00 +3°C° 0.1 mm 7 m/s 717 mmHg 81%
    22:00 +3°C° 0.1 mm 7 m/s 718 mmHg 82%
    23:00 +3°C° 0 mm 7 m/s 718 mmHg 83%

    23 Dezembro, Domingo

    Tempo Temperatura Precipitação Vento Pressão Humidade
    00:00 +2°C° 0 mm 6 m/s 719 mmHg 83%
    01:00 +2°C° 0 mm 6 m/s 719 mmHg 84%
    02:00 +2°C° 0 mm 6 m/s 719 mmHg 83%
    03:00 +2°C° 0 mm 6 m/s 719 mmHg 83%
    04:00 +1°C° 0 mm 6 m/s 720 mmHg 83%
    05:00 +1°C° 0 mm 6 m/s 720 mmHg 83%
    06:00 +1°C° 0 mm 6 m/s 720 mmHg 84%
    07:00 +1°C° 0 mm 6 m/s 721 mmHg 84%
    08:00 +2°C° 0 mm 6 m/s 721 mmHg 83%
    09:00 +2°C° 0 mm 6 m/s 721 mmHg 81%
    10:00 +2°C° 0 mm 7 m/s 722 mmHg 79%
    11:00 +2°C° 0 mm 7 m/s 722 mmHg 78%
    12:00 +3°C° 0 mm 7 m/s 722 mmHg 76%
    13:00 +3°C° 0 mm 7 m/s 722 mmHg 75%
    14:00 +2°C° 0 mm 6 m/s 722 mmHg 76%
    15:00 +2°C° 0 mm 6 m/s 722 mmHg 78%
    16:00 +2°C° 0 mm 5 m/s 722 mmHg 80%
    17:00 +1°C° 0 mm 5 m/s 722 mmHg 81%
    18:00 +1°C° 0 mm 5 m/s 722 mmHg 82%
    19:00 +1°C° 0 mm 5 m/s 723 mmHg 82%
    20:00 +1°C° 0 mm 5 m/s 723 mmHg 82%
    21:00 +1°C° 0 mm 5 m/s 723 mmHg 82%
    22:00 0°C° 0 mm 5 m/s 723 mmHg 82%
    23:00 0°C° 0 mm 5 m/s 723 mmHg 84%

    24 Dezembro, Segunda-feira

    Tempo Temperatura Precipitação Vento Pressão Humidade
    00:00 0°C° 0 mm 5 m/s 723 mmHg 85%
    01:00 0°C° 0 mm 4 m/s 723 mmHg 87%
    02:00 0°C° 0 mm 4 m/s 724 mmHg 88%
    03:00 +1°C° 0 mm 3 m/s 724 mmHg 88%
    04:00 +1°C° 0 mm 3 m/s 724 mmHg 89%
    05:00 0°C° 0 mm 3 m/s 724 mmHg 89%
    06:00 0°C° 0 mm 3 m/s 724 mmHg 90%
    07:00 +1°C° 0 mm 2 m/s 724 mmHg 90%
    08:00 +2°C° 0 mm 2 m/s 724 mmHg 89%
    09:00 +1°C° 0 mm 3 m/s 724 mmHg 88%
    10:00 +1°C° 0 mm 3 m/s 724 mmHg 87%
    11:00 +2°C° 0.1 mm 3 m/s 724 mmHg 86%
    12:00 +2°C° 0.1 mm 3 m/s 724 mmHg 84%
    13:00 +2°C° 0.1 mm 3 m/s 724 mmHg 82%
    14:00 +2°C° 0 mm 3 m/s 724 mmHg 85%
    15:00 +2°C° 0 mm 2 m/s 724 mmHg 87%
    16:00 +2°C° 0 mm 2 m/s 724 mmHg 90%
    17:00 +2°C° 0 mm 2 m/s 725 mmHg 90%
    18:00 +1°C° 0 mm 2 m/s 725 mmHg 90%
    19:00 +1°C° 0 mm 2 m/s 725 mmHg 90%
    20:00 +1°C° 0 mm 2 m/s 725 mmHg 90%
    21:00 +1°C° 0 mm 2 m/s 725 mmHg 90%
    22:00 -1°C° 0 mm 2 m/s 725 mmHg 90%
    23:00 -1°C° 0 mm 2 m/s 725 mmHg 90%
    Mostrar mais